Location: Allie Creek
(37.5926°N, 89.8526°W)
Time: 13:13:20
(UTC+00:00)

Helios 1A - Pass Details

Date: 26 September 2023
Orbit: 573 x 586 km, 98.3° (Epoch: 25 November)

Event Time Altitude Azimuth Distance (km) Brightness Sun altitude
Rises 10:34:12 0° 167° (SSE) 2,803 6.5 -15.9°
Reaches altitude 10° 10:36:21 10° 167° (SSE) 1,905 5.6 -15.4°
Maximum altitude 10:40:29 86° 256° (WSW) 592 2.9 -14.6°
Drops below altitude 10° 10:44:38 10° 346° (NNW) 1,910 5.5 -13.8°
Sets 10:46:47 0° 347° (NNW) 2,811 6.4 -13.4°
